Location: Newark
(18.0634°N, 63.0549°W)
Time: 23:42:30
(UTC+00:00)

N. Korean satellite - Visible Passes

Search period start: 15 October 2019 00:00
Search period end: 25 October 2019 00:00
Orbit: 455 x 508 km, 97.2° (Epoch: 14 October)

Date Brightness Start Highest point End Pass type
(mag) Time Alt. Az. Time Alt. Az. Time Alt. Az.
15 Oct 9.4 22:09:21 10° SSW 22:12:08 23° W 22:14:55 10° NW visible
17 Oct 9.3 09:21:49 10° NE 09:24:52 25° E 09:27:56 10° SSE visible
18 Oct 10.6 08:58:51 10° E 08:59:34 10° E 09:00:17 10° ESE visible
18 Oct 10.3 22:28:11 10° WSW 22:29:39 12° W 22:31:06 10° WNW visible
20 Oct 7.8 09:38:49 10° NNE 09:42:22 48° E 09:45:57 10° S visible
21 Oct 9.7 09:14:22 10° NE 09:17:05 20° E 09:19:49 10° SE visible
22 Oct 10.0 22:19:36 10° SW 22:21:47 16° W 22:23:59 10° WNW visible
24 Oct 8.5 09:31:08 10° NNE 09:34:33 36° E 09:38:00 10° SSE visible
